RH
51 59 58 46 52 53 44 45 45 42 40 31 34 34 31 29 26 24 22 20 20 18 16 15 15 15 14 14 14 13 12 11 10 9 9 10 14 13 15 16 12 14 38 31
54 48 52 50 45 43 43 43 41 36 30 28 29 30 30 27 24 21 18 17 17 16 15 15 14 13 12 12 10 9 9 8 10 24 35 33 24 26 23 29 25 18 16 26
49 45 49 50 48 45 43 40 39 32 28 25 22 20 22 21 20 19 18 17 15 14 13 13 14 14 16 18 18 18 24 28 58 79 82 81 67 42 46 47 40 30 22 17
37 42 40 38 38 34 31 29 27 26 24 22 21 18 19 20 18 16 15 13 12 15 20 20 18 19 18 19 28 51 95 100 100 99 98 82 98 84 66 48 81 51 29 21
37 38 36 35 33 31 28 25 22 22 23 25 24 22 17 16 13 12 12 13 17 22 24 23 21 18 22 30 31 42 50 56 63 74 89 100 96 76 74 68 91 81 76 55
45 42 43 40 34 30 29 30 29 26 22 24 22 20 14 15 15 18 24 25 26 26 29 41 38 34 47 56 64 82 77 90 91 88 95 90 85 88 99 100 93 74 72 69
45 43 37 35 34 30 28 25 23 22 19 18 18 16 14 17 21 20 23 22 21 28 28 34 41 55 90 77 73 100 84 82 89 92 100 85 86 98 93 94 82 67 59 60
56 50 43 36 33 28 24 24 24 23 22 21 26 24 24 22 28 29 30 25 26 39 52 54 80 100 100 100 96 88 94 100 78 69 85 96 97 84 99 89 61 50 52 52
56 48 35 26 25 30 38 39 53 58 68 48 29 28 27 32 32 36 40 53 54 50 66 57 84 99 100 97 100 100 93 91 95 73 59 59 60 78 77 79 53 52 54 32
38 38 36 31 29 29 38 59 66 88 75 58 43 38 32 31 40 50 56 62 70 65 77 65 56 55 76 81 99 93 100 100 92 75 55 88 80 74 91 78 33 20 29 33
17 23 34 35 32 39 63 74 89 99 96 86 63 41 39 41 56 63 73 86 96 95 100 92 76 63 52 45 47 59 65 79 65 68 93 75 67 64 52 30 24 32 37 51
14 38 25 80 60 74 93 84 100 100 92 85 77 35 44 61 64 85 91 100 95 100 96 89 80 73 67 57 50 50 45 41 40 34 50 74 58 33 24 20 25 35 45 43
19 60 91 97 100 100 97 78 100 100 100 70 81 51 63 61 74 91 97 92 90 96 96 83 77 69 62 56 52 44 39 40 36 32 26 27 37 29 30 33 32 25 30 24
71 94 86 90 83 89 73 47 71 92 91 89 65 79 71 71 79 88 100 100 97 100 97 84 78 77 72 71 60 55 53 47 43 49 51 46 44 39 30 16 18 16 6 3
99 80 87 90 84 96 66 39 31 75 91 98 76 68 66 81 79 93 98 100 97 92 88 83 84 76 73 73 69 60 57 53 52 42 14 13 8 5 7 8 3 3 6 50
95 84 86 89 100 100 76 44 83 97 100 93 82 63 81 74 81 83 88 86 86 95 97 81 56 35 33 33 30 28 24 21 14 10 7 4 4 4 5 13 23 57 61 74
45 50 54 78 100 100 58 63 92 100 99 98 73 72 75 77 86 87 83 80 77 50 17 11 11 9 8 7 7 7 7 7 6 5 9 16 53 87 82 90 74 71 64 85
36 71 64 99 100 87 56 61 73 87 89 81 76 82 83 88 86 77 47 16 10 14 18 26 32 27 20 15 12 9 7 6 6 17 59 100 100 100 100 100 100 100 99 99
72 87 99 88 84 81 48 51 78 84 81 87 80 86 78 48 16 13 18 25 35 39 56 56 59 62 35 24 25 20 13 13 35 81 100 100 100 100 100 100 100 100 100 100
57 68 88 94 88 94 79 82 92 86 75 72 56 30 14 16 23 22 30 38 43 64 84 74 96 90 86 55 39 62 83 99 100 100 100 100 100 100 96 90 92 100 100 100
55 82 77 99 99 90 95 100 90 82 66 50 19 16 22 26 41 52 47 55 74 98 100 100 100 84 86 100 100 100 100 100 100 100 100 99 100 88 25 15 11 16 50 79
93 100 100 100 95 98 100 98 90 72 36 16 17 25 34 58 68 77 81 91 98 88 95 95 100 100 100 100 100 100 100 100 100 100 100 99 34 13 10 8 8 7 6 6
99 100 100 100 100 100 100 99 91 39 14 20 35 36 42 55 82 90 83 92 88 90 90 98 100 100 100 100 100 100 100 100 100 66 40 44 28 36 9 8 7 7 6 6
97 100 100 100 100 100 100 77 33 18 26 31 42 48 60 72 83 67 81 94 97 89 92 100 100 100 100 100 100 100 100 100 74 36 24 18 14 12 11 10 8 7 6 6
98 100 100 100 100 100 93 35 24 33 33 35 47 58 68 82 76 72 83 84 88 92 98 99 100 100 100 100 100 100 90 55 28 23 21 18 14 13 14 12 8 7 7 7
100 100 99 100 94 67 32 37 41 38 42 51 58 64 85 86 90 76 93 100 99 92 99 100 100 100 100 100 100 87 64 31 24 24 25 19 16 14 13 12 10 10 8 8
Wind_Speed
43 46 46 47 52 54 56 57 52 48 48 48 48 48 50 51 51 52 54 57 59 61 61 63 65 68 70 72 73 74 74 75 73 67 67 64 61 61 60 60 64 66 61 57
43 44 48 50 50 49 48 50 51 48 48 49 48 49 51 52 54 56 58 60 62 64 65 67 68 69 71 73 73 70 68 68 59 56 55 52 58 60 63 62 62 66 67 63
45 44 42 43 46 49 50 52 50 50 49 48 49 49 52 52 55 58 60 61 62 64 65 66 63 62 58 54 53 52 54 55 56 54 51 52 53 59 61 62 63 63 66 67
43 39 40 43 44 42 45 43 46 47 48 49 50 52 54 54 54 53 55 58 59 58 54 55 54 50 47 45 48 58 62 63 57 56 56 54 54 54 53 56 53 60 64 68
40 38 41 42 41 46 44 44 45 47 48 50 53 51 54 56 55 54 56 56 54 48 46 45 45 45 44 44 47 46 49 56 62 61 59 46 47 47 50 51 45 48 56 64
41 44 43 42 44 43 44 45 45 46 46 49 45 48 50 51 50 47 42 41 42 40 39 38 35 38 40 42 39 40 40 41 42 43 40 46 41 44 40 36 40 39 45 49
44 43 41 41 42 39 39 41 43 44 44 45 48 50 48 42 40 37 37 38 41 43 45 40 38 31 35 33 35 38 35 37 41 41 37 43 44 42 38 39 35 37 44 47
41 40 36 38 38 38 36 34 36 39 42 43 40 44 39 36 33 37 38 40 41 42 41 35 28 29 29 36 34 42 41 35 36 41 36 41 46 42 41 41 35 33 35 39
41 39 35 33 32 33 33 32 31 35 35 39 42 38 35 33 33 34 35 39 39 42 39 36 34 36 32 26 22 24 30 39 43 44 42 44 46 44 44 38 40 40 41 43
41 41 36 34 30 30 27 30 31 30 34 38 37 38 38 38 38 39 44 39 37 39 37 36 39 39 38 41 36 35 29 23 27 35 38 37 35 41 49 36 40 42 48 48
39 41 39 37 33 28 29 32 30 32 35 37 40 40 40 39 40 44 45 42 39 38 36 37 38 40 42 42 44 47 47 37 33 37 32 28 28 31 33 38 45 50 49 40
39 39 40 32 29 31 31 31 34 35 36 37 40 37 39 41 40 44 36 34 37 34 35 37 37 39 41 41 43 43 43 44 43 42 41 39 35 36 43 46 46 42 44 44
39 38 37 38 34 38 35 33 31 31 36 39 41 39 39 41 47 46 36 39 39 36 38 37 38 39 41 42 40 41 43 41 42 42 42 46 43 44 42 43 40 42 45 48
39 38 40 41 42 41 40 36 37 38 40 37 39 38 41 45 49 44 38 41 38 40 41 40 40 40 35 34 34 36 37 35 35 34 33 32 32 34 36 40 41 44 48 53
37 42 41 42 40 38 39 39 40 41 38 38 37 41 45 46 45 39 41 40 40 40 42 42 40 35 32 30 29 31 30 29 30 30 30 28 30 34 35 39 43 46 43 39
39 38 39 39 36 38 38 38 37 36 37 39 40 44 45 45 39 36 37 40 42 41 39 39 39 39 38 37 36 34 32 30 31 29 29 28 31 32 34 35 33 31 32 38
41 39 36 37 41 38 41 33 34 35 39 41 43 46 46 40 38 38 39 40 41 41 43 44 44 45 44 42 41 39 37 35 32 28 25 25 21 21 22 22 25 29 29 28
40 37 38 42 36 37 36 36 38 37 38 41 45 43 39 36 35 36 37 41 41 38 37 36 36 39 39 38 35 33 31 29 25 19 12 9 8 7 6 5 4 5 12 18
36 38 39 42 41 36 35 40 40 40 40 41 39 36 35 36 37 35 36 34 32 29 27 26 26 30 29 27 26 23 19 16 13 7 4 5 8 8 6 6 7 7 8 7
37 38 39 39 40 36 39 39 37 40 40 34 33 32 33 30 30 32 29 28 26 26 27 25 25 26 25 18 13 10 9 9 7 6 10 14 8 9 14 14 15 16 18 10
35 33 37 38 38 38 37 37 38 38 35 31 30 27 25 26 25 25 26 28 28 27 24 23 21 19 11 8 7 7 7 6 11 21 20 13 8 8 8 9 10 13 14 16
34 34 34 33 34 35 36 36 36 34 29 28 26 21 20 21 25 27 26 23 21 19 19 17 18 16 9 8 8 8 8 17 23 21 15 11 8 7 6 7 10 12 15 16
37 33 31 31 35 37 35 34 31 28 27 22 20 21 20 24 23 22 22 21 19 16 16 15 12 8 8 7 5 6 16 22 18 12 12 10 6 2 2 6 12 15 16 15
30 32 32 32 32 33 31 28 27 24 22 19 21 20 23 22 20 20 18 16 13 11 10 8 6 7 7 5 6 16 21 20 14 11 8 5 3 3 6 12 16 18 20 22
33 29 27 28 31 30 25 24 20 19 19 20 19 19 20 17 16 15 10 6 6 7 7 6 6 9 8 7 12 17 12 11 9 7 4 5 9 10 12 15 18 21 23 24
27 26 29 25 25 20 20 16 15 16 16 15 17 18 15 13 14 9 8 8 7 6 6 6 10 12 10 11 14 10 10 7 5 5 7 11 15 17 19 20 22 25 26 26
Wind_Direction
263 268 270 268 269 272 274 274 274 276 276 275 271 272 272 273 276 276 278 277 277 277 277 276 276 277 277 276 275 273 271 270 270 270 269 267 262 260 258 256 257 258 259 257
267 265 265 265 268 271 272 273 274 276 275 274 275 275 275 276 279 279 278 278 278 279 279 279 279 279 277 275 275 274 274 272 271 271 270 265 257 255 255 254 253 254 256 257
271 270 271 269 267 268 271 272 273 273 273 274 276 278 277 278 280 282 282 283 284 284 283 282 282 282 279 277 276 273 271 267 267 264 259 252 248 256 255 257 257 254 253 254
274 275 273 270 270 269 268 270 271 272 272 273 272 273 277 279 279 281 282 283 285 288 288 287 286 282 279 270 266 269 268 265 271 265 268 260 259 260 263 264 266 258 256 256
274 272 269 269 270 269 271 271 271 271 272 274 274 277 278 281 284 288 288 291 292 293 291 287 282 278 275 277 270 270 272 272 269 271 275 258 268 266 262 261 266 267 260 255
269 270 272 273 273 273 273 274 273 274 275 274 279 279 279 282 287 289 292 292 291 291 293 292 286 279 275 274 275 280 274 272 270 268 271 264 265 266 263 263 267 272 273 276
266 268 270 272 274 276 275 274 276 276 279 281 281 282 285 286 289 292 295 298 295 289 289 291 290 272 274 277 276 282 277 275 271 276 275 268 271 268 264 269 267 272 273 274
268 268 271 274 275 276 278 280 279 279 279 281 281 282 290 293 297 301 303 298 294 290 293 298 292 267 267 271 287 277 273 271 277 267 274 281 276 271 271 273 269 271 277 272
269 264 266 269 273 276 279 279 275 274 278 279 280 283 285 286 290 295 296 295 292 290 287 289 278 278 278 270 283 294 281 268 267 278 275 274 290 269 259 268 272 276 272 269
270 268 269 268 268 271 271 266 266 270 277 277 280 281 287 289 296 299 304 295 289 286 288 285 286 288 290 286 275 269 283 269 284 291 288 283 292 271 261 266 272 280 279 280
273 273 272 275 275 270 259 251 260 273 274 281 285 287 291 293 297 302 299 291 293 287 288 289 290 292 290 290 288 287 292 286 277 285 272 273 279 275 277 282 276 272 274 282
270 277 276 281 269 272 268 259 253 270 270 276 285 292 290 294 296 305 287 292 299 289 288 288 288 287 287 287 285 285 287 284 286 286 274 271 268 274 276 277 277 281 282 282
266 263 263 261 262 265 274 272 276 263 268 278 285 292 292 297 300 303 286 289 291 286 288 284 282 284 286 284 282 277 277 279 279 280 276 271 274 280 280 281 284 284 283 282
256 256 257 260 265 266 270 264 268 273 276 285 288 294 294 293 297 296 288 289 285 284 285 286 289 292 287 281 280 279 277 278 282 286 287 284 282 283 285 286 288 287 288 287
249 252 257 259 264 269 269 271 270 274 276 279 288 293 293 294 291 283 283 285 283 286 288 289 290 289 290 286 283 280 280 281 281 282 282 286 290 284 291 296 295 296 297 296
256 255 256 258 266 271 267 264 271 275 277 284 286 291 294 289 284 281 280 283 289 290 289 290 291 291 290 288 286 286 287 289 288 292 297 302 297 307 304 303 309 305 292 304
256 260 261 259 259 262 267 261 274 276 282 285 285 289 292 289 281 279 282 287 289 290 294 293 293 293 293 291 290 291 293 293 296 298 300 299 313 318 315 312 305 303 295 303
255 257 253 252 272 267 266 260 275 280 285 287 289 292 289 287 286 288 290 288 291 292 291 292 292 293 294 294 292 289 287 288 288 285 292 311 307 284 259 253 285 271 293 281
256 256 258 263 264 273 271 270 277 283 286 288 289 283 285 288 289 290 287 292 290 292 293 293 296 300 297 290 286 284 278 268 259 252 255 244 235 225 190 141 81 115 120 118
254 254 258 259 260 272 272 273 278 282 284 285 284 286 286 289 290 289 292 292 292 291 289 285 294 296 295 278 257 232 222 211 202 204 207 194 145 85 59 41 29 25 31 39
252 258 259 260 263 266 272 278 280 282 282 286 285 289 296 295 292 294 295 293 292 291 289 290 294 292 283 255 235 234 214 199 210 181 151 134 140 102 95 77 59 45 33 26
244 258 263 257 262 272 276 276 279 280 282 285 290 294 294 291 295 294 290 289 287 289 291 290 281 277 256 248 244 226 221 207 163 138 138 150 153 131 95 54 35 20 19 15
249 267 270 261 262 270 275 276 275 280 283 285 294 298 296 296 291 290 288 280 268 276 287 272 268 245 241 237 228 218 211 163 139 150 155 158 162 141 56 22 12 6 2 355
263 256 258 257 260 266 269 274 276 277 279 282 292 292 295 293 295 301 283 273 267 264 259 251 243 236 218 171 188 191 163 146 149 158 160 181 218 300 336 355 353 347 345 341
264 252 257 261 266 263 265 266 270 275 273 280 283 287 293 286 292 296 268 220 206 226 231 226 221 192 161 162 188 160 145 170 164 163 202 262 292 310 322 337 342 337 332 326
250 260 263 256 254 258 255 261 272 272 274 274 281 288 286 285 286 264 239 242 211 212 214 197 187 167 148 177 167 164 178 192 206 251 289 295 298 305 316 319 319 322 323 321